Bridgeport, WV

8:15 PM EST on February 25, 2017 (GMT -0500)
Benedum

Weather History for KCKB - July, 2013

Change the Weather History Date:

Friday, July 26, 2013

  Actual Average Record
Temperature  
Mean Temperature 65 °F -  
Max Temperature 80 °F 84 °F 101 °F (1930)
Min Temperature 51 °F 62 °F 49 °F (1947)
Growing Degree Days 15 (Base 50)    
Moisture  
Dew Point 53 °F    
Average Humidity 81    
Maximum Humidity 100    
Minimum Humidity 38    
Precipitation  
Precipitation 0.00 in - - ()
Sea Level Pressure  
Sea Level Pressure 30.08 in    
Wind  
Wind Speed 0 mph (NW)    
Max Wind Speed 4 mph    
Max Gust Speed -    
Visibility 5 miles    
Events Fog    
Averages and records for this station are not official NWS values.
T = Trace of Precipitation, MM = Missing Value Source: NWS Daily Summary

Daily Weather History Graph

Daily Weather History Graph

Search for Another Location

Airport or City:

Trip Planner

Search our weather history database for the weather conditions in past years. The results will help you decide how hot, cold, wet, or windy it might be!

Date:

Astronomy

Jul. 26, 2013 Rise Set
Actual Time 6:15 AM EDT 8:38 PM EDT
Civil Twilight 5:45 AM EDT 9:08 PM EDT
Nautical Twilight 5:07 AM EDT 9:46 PM EDT
Astronomical Twilight 4:26 AM EDT 10:27 PM EDT
Moon 10:53 PM EDT 10:48 AM EDT
Length of Visible Light 15h 23m
Length of Day
14h 22m
Waning Gibbous, 80% of the Moon is Illuminated
Jul 26
Waning Gibbous
Jul 29
Last Quarter
Aug 6
New
Aug 14
First Quarter
Aug 20
Full

Hourly Weather History & Observations

Time (EDT) Temp. Dew Point Humidity Pressure Visibility Wind Dir Wind Speed Gust Speed Precip Events Conditions
12:53 AM 57.0 °F 54.0 °F 89% 30.07 in 9.0 mi Calm Calm - N/A   Clear
1:53 AM 55.9 °F 54.0 °F 93% 30.06 in 7.0 mi Calm Calm - N/A   Clear
2:53 AM 55.0 °F 53.1 °F 93% 30.08 in 2.5 mi Calm Calm - N/A   Clear
3:03 AM 55.4 °F 53.6 °F 94% 30.11 in 1.5 mi Calm Calm - N/A   Clear
3:08 AM 53.6 °F 51.8 °F 94% 30.10 in 2.0 mi Calm Calm - N/A   Partly Cloudy
3:25 AM 53.6 °F 53.6 °F 100% 30.11 in 6.0 mi Calm Calm - N/A   Partly Cloudy
3:53 AM 54.0 °F 52.0 °F 93% 30.07 in 5.0 mi Calm Calm - N/A   Clear
4:30 AM 53.6 °F 51.8 °F 94% 30.10 in 2.0 mi Calm Calm - N/A   Clear
4:41 AM 53.6 °F 51.8 °F 94% 30.10 in 4.0 mi Calm Calm - N/A   Clear
4:51 AM 51.8 °F 51.8 °F 100% 30.10 in 2.0 mi Calm Calm - N/A   Clear
4:53 AM 52.0 °F 50.0 °F 93% 30.07 in 1.8 mi Calm Calm - N/A   Clear
5:08 AM 51.8 °F 51.8 °F 100% 30.10 in 0.8 mi Calm Calm - N/A   Mist
5:49 AM 51.8 °F 50.0 °F 94% 30.11 in 0.2 mi Calm Calm - N/A Fog Fog
5:53 AM 52.0 °F 51.1 °F 97% 30.08 in 0.2 mi Calm Calm - N/A Fog Fog
6:21 AM 51.8 °F 51.8 °F 100% 30.11 in 0.2 mi Calm Calm - N/A Fog Fog
6:43 AM 51.8 °F 50.0 °F 94% 30.12 in 0.2 mi Calm Calm - N/A Fog Fog
6:50 AM 51.8 °F 50.0 °F 94% 30.12 in 0.2 mi Calm Calm - N/A Fog Fog
6:53 AM 51.1 °F 50.0 °F 96% 30.09 in 0.2 mi Calm Calm - N/A Fog Fog
7:21 AM 51.8 °F 51.8 °F 100% 30.13 in 0.2 mi Calm Calm - N/A Fog Fog
7:31 AM 53.6 °F 51.8 °F 94% 30.12 in 0.8 mi Calm Calm - N/A   Mist
7:38 AM 53.6 °F 51.8 °F 94% 30.12 in 2.0 mi Calm Calm - N/A   Mostly Cloudy
7:45 AM 53.6 °F 53.6 °F 100% 30.12 in 0.2 mi Calm Calm - N/A Fog Fog
7:53 AM 54.0 °F 53.1 °F 97% 30.10 in 0.2 mi Calm Calm - N/A Fog Fog
8:24 AM 55.4 °F 53.6 °F 94% 30.13 in 2.0 mi Calm Calm - N/A   Overcast
8:46 AM 57.2 °F 55.4 °F 94% 30.13 in 8.0 mi Calm Calm - N/A   Scattered Clouds
8:53 AM 60.1 °F 55.9 °F 86% 30.10 in 10.0 mi Calm Calm - N/A   Partly Cloudy
9:53 AM 66.0 °F 57.0 °F 73% 30.10 in 10.0 mi Calm Calm - N/A   Clear
10:53 AM 70.0 °F 55.0 °F 59% 30.10 in 10.0 mi Calm Calm - N/A   Clear
11:53 AM 73.0 °F 54.0 °F 51% 30.09 in 10.0 mi Calm Calm - N/A   Clear
12:53 PM 73.9 °F 50.0 °F 43% 30.08 in 10.0 mi Calm Calm - N/A   Clear
1:53 PM 75.9 °F 51.1 °F 42% 30.07 in 10.0 mi Calm Calm - N/A   Clear
2:53 PM 77.0 °F 51.1 °F 40% 30.05 in 10.0 mi Calm Calm - N/A   Clear
3:53 PM 79.0 °F 52.0 °F 39% 30.03 in 10.0 mi NW 3.5 mph - N/A   Clear
4:53 PM 78.1 °F 51.1 °F 39% 30.02 in 10.0 mi Calm Calm - N/A   Clear
5:53 PM 79.0 °F 51.1 °F 38% 30.01 in 10.0 mi Variable 3.5 mph - N/A   Clear
6:53 PM 75.9 °F 55.0 °F 48% 30.01 in 10.0 mi Calm Calm - N/A   Clear
7:53 PM 73.0 °F 57.9 °F 59% 30.01 in 10.0 mi Calm Calm - N/A   Clear
8:53 PM 69.1 °F 59.0 °F 70% 30.00 in 10.0 mi Calm Calm - N/A   Clear
9:53 PM 66.9 °F 60.1 °F 79% 30.01 in 10.0 mi Calm Calm - N/A   Clear
10:53 PM 64.9 °F 59.0 °F 81% 30.00 in 10.0 mi Calm Calm - N/A   Clear
11:53 PM 62.1 °F 57.9 °F 86% 30.00 in 10.0 mi Calm Calm - N/A   Clear